Location: Unspecified
(58.9933°N, 5.6375°E)
Time: 11:28:08
(UTC+02:00)

Okean 3 - Visible Passes

Search period start: 05 July 2015 00:00
Search period end: 15 July 2015 00:00
Orbit: 579 x 606 km, 82.5° (Epoch: 05 July)

Date Brightness Start Highest point End Pass type
(mag) Time Alt. Az. Time Alt. Az. Time Alt. Az.
05 Jul 5.2 01:30:49 10° NW 01:34:09 23° W 01:37:26 10° SW visible
06 Jul 3.5 00:02:01 10° NNW 00:06:14 82° ENE 00:10:28 10° SSE visible
06 Jul 5.6 01:40:16 10° NW 01:43:04 17° W 01:45:47 10° SW visible
07 Jul 3.6 00:11:07 10° NNW 00:15:19 73° W 00:19:30 10° S visible
07 Jul 5.9 01:49:58 10° NW 01:51:58 13° W 01:53:49 10° WSW visible
08 Jul 4.0 00:20:15 10° NNW 00:24:21 53° W 00:28:27 10° S visible
09 Jul 4.5 00:29:26 10° NNW 00:33:22 39° W 00:37:16 10° SSW visible
10 Jul 5.0 00:38:40 10° NNW 00:42:20 29° W 00:45:57 10° SSW visible
11 Jul 5.4 00:48:00 10° NW 00:51:16 22° W 00:54:28 10° SW visible
12 Jul 5.8 00:57:28 10° NW 01:00:11 16° W 01:02:46 10° WSW visible
13 Jul 6.0 01:07:14 10° NW 01:09:02 12° W 01:10:42 10° WSW visible
14 Jul 4.7 23:46:32 10° NNW 23:50:26 36° W 23:54:20 10° SSW visible
